Terminal Aerodrome Forecast
Issued by NWS

Home | Current Version | Previous Version | Text Only | Print | Product List | Glossary On
Versions: 1 2 3 4 5 6 7 8 9 10 11 12 13
000
FTUS45 KREV 270529
TAFMMH
TAF
KMMH 270529Z 2706/2806 28010KT P6SM BKN050 OVC090
     FM271000 25014G22KT P6SM VCSH BKN045 OVC080
     FM271400 25015G25KT 3SM -SHSN SCT025 BKN035
     FM271800 27020G32KT P6SM VCSH SCT030 BKN050
     FM280300 30018G30KT P6SM SCT050 BKN070=

USA.gov is the U.S. government's official web portal to all federal, state and local government web resources and services.